Regional Weather Roundup
Issued by NWS

Home | Current Version | Previous Version | Graphics & Text | Print | Product List | Glossary On
Versions: 1 2 3 4 5 6 7 8 9 10 11 12 13 14 15 16 17 18 19 20 21 22 23 24 25 26 27 28 29 30 31 32 33 34 35 36 37 38 39 40 41 42 43 44 45 46 47 48 49 50
000
ASUS43 KOAX 211502
RWRNE

WEATHER ROUNDUP FOR NEBRASKA
NATIONAL WEATHER SERVICE OMAHA NE
1000 AM CDT TUE OCT 21 2014

NOTES: SATELLITE DATA IS BEING USED TO AUGMENT CLOUD COVER ABOVE
       12000 FEET.
       "FAIR" INDICATES FEW OR NO CLOUDS BELOW 12,000 FEET WITH NO
       SIGNIFICANT WEATHER AND/OR OBSTRUCTIONS TO VISIBILITY.

  * THESE STATIONS DO NOT REPORT WEATHER SUCH AS RAIN...SNOW OR FOG.

NEZ001>004-019>022-054>056-211600-
NEBRASKA PANHANDLE

CITY           SKY/WX    TMP DP  RH WIND       PRES   REMARKS
SCOTTSBLUFF    MOSUNNY   53  44  71 CALM      29.98R
ALLIANCE       SUNNY     54  48  80 S9        29.97R
CHADRON        SUNNY     56  44  64 W7        29.90S
KIMBALL        SUNNY     52  42  68 SW3       29.99F
SIDNEY         SUNNY     54  48  80 SW8       30.00S
$$

NEZ057>060-069>072-079>082-211600-
SOUTHWEST NEBRASKA

CITY           SKY/WX    TMP DP  RH WIND       PRES   REMARKS
NORTH PLATTE   SUNNY     59  45  59 S10       30.05S
IMPERIAL       PTSUNNY   55  52  89 S10G21    30.04R FOG
LEXINGTON      SUNNY     57  47  69 SE3       30.08R
MCCOOK         SUNNY     54  43  66 SE6       30.07S
OGALLALA       SUNNY     51  45  78 CALM      30.02F
$$

NEZ005>010-023>029-035>040-094-211600-
NORTH CENTRAL NEBRASKA

CITY           SKY/WX    TMP DP  RH WIND       PRES   REMARKS
VALENTINE      SUNNY     62  45  53 SW16      29.96S
AINSWORTH      SUNNY     58  43  57 S14       29.99F
BROKEN BOW     SUNNY     58  46  64 S6        30.06S
O`NEILL        SUNNY     58  47  67 S7        30.04S
ORD            SUNNY     51  44  77 E5        30.05F
THEDFORD       SUNNY     61  49  65 S13       30.03S
$$

NEZ041-046>049-061>064-073>077-083>087-211600-
SOUTH CENTRAL NEBRASKA

CITY           SKY/WX    TMP DP  RH WIND       PRES   REMARKS
GRAND ISLAND   SUNNY     57  44  62 S8        30.10R
AURORA         SUNNY     56  44  64 S5        30.10S
HASTINGS       SUNNY     55  43  63 S6        30.09S
HEBRON         SUNNY     52  45  77 CALM      30.12S
HOLDREGE       SUNNY     57  45  64 CALM      30.08F
KEARNEY *      SUNNY     54  45  71 S6        30.09S
YORK           SUNNY     55  45  67 S7        30.10S
$$

NEZ011>018-030>034-042>045-211600-
NORTHEAST NEBRASKA

CITY           SKY/WX    TMP DP  RH WIND       PRES   REMARKS
NORFOLK        SUNNY     60  41  49 S10       30.08R
ALBION         SUNNY     50  41  71 S5        30.08S
BLAIR          SUNNY     59  43  55 SE6       30.12S
COLUMBUS *     SUNNY     54  41  62 SE6       30.11S
FREMONT        SUNNY     54  43  65 SE3       30.12S HAZE
TEKAMAH        SUNNY     50  42  74 SE6       30.12S
WAYNE          SUNNY     56  41  57 S7        30.09F
$$

NEZ050>053-065>068-078-088>093-211600-
SOUTHEAST NEBRASKA

CITY           SKY/WX    TMP DP  RH WIND       PRES   REMARKS
LINCOLN        SUNNY     51  41  68 CALM      30.13S
OMAHA EPPLEY   SUNNY     50  43  77 CALM      30.14S
BEATRICE       SUNNY     55  44  66 CALM      30.12S
FALLS CITY     SUNNY     52  45  77 CALM      30.13S
NEBRASKA CITY  SUNNY     54  40  59 CALM      30.14R
PLATTSMOUTH    SUNNY     55  42  63 CALM      30.13S
$$

NEZ044-045-051>053-067-211600-
OMAHA AREA

CITY           SKY/WX    TMP DP  RH WIND       PRES   REMARKS
OMAHA EPPLEY   SUNNY     50  43  77 CALM      30.14S
BLAIR          SUNNY     59  43  55 SE6       30.12S
FREMONT        SUNNY     54  43  65 SE3       30.12S HAZE
OFFUTT AFB     SUNNY     50  50 100 S2        30.13S
PLATTSMOUTH    SUNNY     55  42  63 CALM      30.13S
$$


USA.gov is the U.S. government's official web portal to all federal, state and local government web resources and services.